Showing default

JINJUSAT-1B, 63210

Orbit data source: Space-Track

JINJUSAT-1B, 63210 is a South Korean payload satellite in SSO that was launched on Sat, 15 Mar 2025 UTC via an FALCON 9 launch vehicle from the Air Force Western Test Range (AFWTR). Payload-class satellites include a variety of spacecraft equipped with specific instruments for various scientific and technological missions. These include communications satellites like Starlink; space stations such as the ISS; scientific satellites like the Hubble; Earth observation satellites from companies like Planet Labs, Umbra, and HawkEye 360; GPS; miniature CubeSats for education and research; and military/defense satellites.

Loading next visibility...
Identifier
63210, 2025-052A
Orbit
SSO
Last TLE update
15 hours ago
Origin
Manufacturer
KTL
Mission
Operational Civil Imaging
Bus & Motor
CUBESAT 2U, Unknown motor
Mass
2 kg wet, 2 kg dry
Launch date (UTC)
2025-03-15 (3 months ago)
Launch vehicle
FALCON 9
Launch site
Air Force Western Test Range (AFWTR)
Object type
Payload
Rocket body
Debris
Shape & HBR
Box, 0.2 m
Radar Cross Section
0.025 m², Small (<0.1 m²)

Expand to show TLE details & history

TLE from 15 hours ago
0 JINJUSAT-1B
1 63210U 25052A   25169.67579341  .00008870  00000-0  40492-3 0  9996
2 63210  97.4407  63.6839 0002478 306.8273  53.2735 15.20831609 14634
Epoch: 2025-06-18T16:13Z
TLE epoch observation values (Epoch: 2025-06-18T16:13:08.55Z)
Latitude
-0.00003°
Longitude
-86.75614°
Altitude
505.402 km
Speed
7.612 km/s
True Right ascension
04h 14m 44s
True Declination
0° 00' 00"
Sunlit
Object was in daylight at epoch
Visualization orbit readout
Latitude
-25.42645°
Longitude
90.32563°
Altitude
513.19 km
Speed
7.606 km/s
Apparent Right ascension
12h 37m 35s
Apparent Declination
-64° 43' 49"
Sunlit
Object is in full shadow
Visualization observer readout
Local Sidereal Time
18:10:30
Azimuth
210.284° SW
Elevation
-32.797°
Doppler factor
1
Orbital elements
Apogee altitude
502.002 km
Perigee altitude
498.593 km
Semi-major axis
6,878.434 km
Eccentricity
0.00025
Inclination
97.4407°
RAAN
63.6839°
Arg. of periapsis
306.8273°
True anomaly
Unknown
Mean anomaly
53.2735°
Eccentric anomaly
Unknown
Mean motion
3.8046 °/min
Orbital period
94.62 mins
BSTAR
0.00040492
Loading maneuver chart data...
Loading SW <> Apogee altitude chart data...
Loading historical data...
Loading historical data...
Loading historical data...
Loading historical data...
Loading historical data...
Loading historical data...
Loading historical data...

JINJUSAT-1B Visibility forecast

Observer location: undefined°, undefined°

Span
Click to sort rows by Start time (UTC) header in descending order
Start Az.
Max El. time (UTC)
Max El. Az.
Max El.
End time (UTC)
End Az.
4 mins2025-06-19 16:03:53.301Z102.683° ESE2025-06-19 16:05:53.301Z64.835° ENE16.74°2025-06-19 16:07:53.301Z29.472° NE
4 mins2025-06-19 17:37:53.301Z225.752° WSW2025-06-19 17:38:53.301Z250.326° W24.291°2025-06-19 17:41:53.301Z317.855° NNW
4 mins2025-06-20 05:07:53.301Z60.828° ENE2025-06-20 05:08:53.301Z83.453° E21.933°2025-06-20 05:11:53.301Z146.848° SSE
|